HST,Max TemperatureF,Mean TemperatureF,Min TemperatureF,Max Dew PointF,MeanDew PointF,Min DewpointF,Max Humidity, Mean Humidity, Min Humidity, Max Sea Level PressureIn, Mean Sea Level PressureIn, Min Sea Level PressureIn, Max VisibilityMiles, Mean VisibilityMiles, Min VisibilityMiles, Max Wind SpeedMPH, Mean Wind SpeedMPH, Max Gust SpeedMPH,PrecipitationIn, CloudCover, Events, WindDirDegrees
2012-10-1,84,78,72,67,63,58,68,60,52,29.99,29.94,29.89,10,10,10,14,5,21,0.00,1,,150
2012-10-2,82,76,71,67,63,58,66,61,56,30.00,29.95,29.89,10,10,10,9,5,,0.00,1,,152
2012-10-3,82,76,71,68,65,60,71,64,54,30.04,29.99,29.96,10,10,10,10,5,,0.00,1,,341
2012-10-4,82,77,72,68,65,61,69,62,56,30.04,30.00,29.96,10,10,10,8,4,,0.00,4,Rain,287
2012-10-5,82,78,73,68,65,62,71,63,56,30.00,29.95,29.90,10,10,10,12,4,,0.01,4,,248
2012-10-6,82,78,73,70,66,60,74,67,58,29.94,29.87,29.83,10,10,6,10,5,,0.09,6,Rain,164
2012-10-7,84,78,73,79,68,55,94,70,42,29.90,29.87,29.82,10,9,2,13,5,,0.40,5,Rain,171
2012-10-8,82,78,75,78,60,27,100,57,13,29.96,29.90,29.85,10,9,2,15,11,22,0.46,5,Rain,195
2012-10-9,84,80,77,82,73,67,100,78,62,30.06,30.00,29.93,10,10,6,13,5,17,0.00,5,,165
2012-10-10,82,78,73,75,68,53,89,68,40,30.10,30.04,30.01,10,10,6,12,3,,0.01,5,Rain,283
2012-10-11,84,78,72,80,69,61,100,74,58,30.10,30.06,30.01,10,10,10,9,4,,0.00,1,,27
2012-10-12,84,78,72,75,67,61,97,68,56,30.14,30.09,30.04,10,10,10,10,6,,0.00,0,,32
2012-10-13,84,78,71,79,67,61,90,67,53,30.16,30.12,30.07,10,10,10,9,5,,0.00,0,,53
2012-10-14,84,78,73,70,66,61,82,66,56,30.15,30.11,30.05,10,10,10,8,4,,0.00,2,,317
2012-10-15,84,77,70,75,64,56,77,62,55,30.12,30.05,29.98,10,10,10,9,4,,0.00,2,,346
2012-10-16,84,78,72,79,67,60,91,71,60,30.04,29.98,29.93,10,10,10,12,5,17,0.00,3,Rain,55
2012-10-17,84,78,72,81,68,62,100,74,58,29.99,29.95,29.90,10,10,10,10,5,,0.00,3,,79
2012-10-18,86,79,72,79,68,62,100,72,51,30.02,29.97,29.91,10,10,10,16,5,22,0.00,3,,67
2012-10-19,84,77,70,77,67,54,97,69,46,30.02,29.98,29.93,10,10,10,12,4,,0.00,0,,46
2012-10-20,84,76,68,81,68,57,97,75,56,30.00,29.97,29.91,10,10,10,13,5,,0.00,2,,353
2012-10-21,86,78,71,75,64,57,100,65,37,30.00,29.96,29.91,10,10,10,13,5,18,0.00,1,,84
2012-10-22,82,76,70,66,61,56,73,59,51,30.02,29.96,29.90,10,10,10,10,4,,0.00,3,,5
2012-10-23,82,76,70,66,60,56,64,57,46,29.98,29.94,29.88,10,10,10,12,5,,0.00,0,,101
2012-10-24,82,76,70,67,62,56,74,58,51,29.93,29.89,29.83,10,10,10,7,4,,0.00,2,,100
2012-10-25,86,80,73,71,64,55,85,60,41,29.99,29.93,29.87,10,10,9,13,5,18,0.04,2,Rain,153
2012-10-26,84,78,73,73,60,36,91,55,20,30.07,30.02,29.96,10,10,6,10,5,,0.02,2,Rain,231
2012-10-27,86,80,73,71,48,-2,91,40,4,30.09,30.04,29.98,10,10,6,21,5,28,0.00,4,,351
2012-10-28,84,78,72,74,56,9,93,58,6,30.05,30.01,29.95,10,10,10,9,3,,0.00,2,,105
2012-10-29,84,78,71,69,51,-7,84,52,4,30.09,30.03,29.97,10,10,10,10,4,,0.00,1,,36
2012-10-30,82,76,71,77,51,-20,88,52,4,30.11,30.07,29.99,10,10,10,9,5,,0.00,0,,39
2012-10-31,84,77,70,73,61,34,84,60,19,30.09,30.03,29.97,10,10,10,12,4,,0.00,0,,68